Weather in Pasvalys

Lithuania     56°03′55″N   24°23′59″E
temp.,
°C
wind,
m/s
gust,
m/s
humid.,
%
clouds,
%
prec.,
mm/h
press.,
hPa
HPBL,
m
28 july, wed
wed2800:00+19ssw369674 0.0 1010122
03:00+18sw349696 0.0 101074
06:00+16wsw23965 0.0 101063
09:00+20wsw34854 0.0 1011315
12:00+25wsw446483 0.0 1010984
15:00+27wsw565219 0.0 10101673
18:00+27w475121 0.0 10092190
21:00+21wnw22725 0.0 100914
29 july, thu
thu2900:00+19s227481 0.0 100822
03:00+19sw3678100 0.0 1008146
06:00+16sw379726 2.1 1008199
09:00+19wsw468624 2.3 1007459
12:00+24w46595 0.0 10071340
15:00+26wsw685099 0.0 10072067
18:00+23wsw596326 0.0 1006748
21:00+19wsw387367 0.0 1006151
30 july, fri
fri3000:00+16wsw498363 0.0 1008228
03:00+14sw410925 0.0 1007219
06:00+14sw513885 0.0 1007327
09:00+19sw712655 0.0 10061384
12:00+22wsw9124743 0.0 10052236
15:00+23wsw913387 0.0 10042581
18:00+21wsw81346100 0.0 10041804
21:00+18sw613544 0.0 1003808
31 july, sat
sat3100:00+17sw816625 0.0 1003869
03:00+16sw7157317 0.0 1003705
06:00+15sw6138429 0.0 1003509
09:00+19sw61074100 0.0 1005661
12:00+22wsw6853100 0.0 10051268
15:00+24sw6846100 0.0 10041560
18:00+24ssw6852100 0.0 10021473
21:00+18sw4989100 1.4 1003257
1 august, sun
sun100:00+15sw389443 0.5 1003162
03:00+14sw412931 0.5 1003261
06:00+13ssw514945 0.0 1004384
09:00+17sw7138335 0.0 1004657
12:00+21wsw795960 0.4 10051594
15:00+24w794586 0.4 10062102
18:00+22wsw6854100 0.0 10071771
21:00+17w2276100 0.0 100715